| time (UTC) | temp F | wind direction | speed MPH | gust MPH | rain 1hr in | rain 24hr in | rain mn in | humidity % | barometer mb |
| 20260506051335 | 39 | 248 | 6.0 | 0.0 | 0.00 | 0.00 | 0.00 | 71 | 1003.4 |
| 20260506050843 | 39 | 241 | 6.0 | 0.0 | 0.00 | 0.00 | 0.00 | 72 | 1003.4 |
| 20260506050337 | 39 | 274 | 7.0 | 0.0 | 0.00 | 0.00 | 0.00 | 71 | 1003.4 |
| 20260506044848 | 39 | 275 | 6.0 | 0.0 | 0.00 | 0.00 | 0.00 | 71 | 1003.3 |
| 20260506044340 | 38 | 261 | 6.0 | 0.0 | 0.00 | 0.00 | 0.00 | 71 | 1003.2 |
| 20260506043833 | 38 | 259 | 6.0 | 0.0 | 0.00 | 0.00 | 0.00 | 71 | 1003.2 |
| 20260506043350 | 38 | 228 | 6.0 | 0.0 | 0.00 | 0.00 | 0.00 | 72 | 1003.2 |
| 20260506042840 | 38 | 243 | 6.0 | 0.0 | 0.00 | 0.00 | 0.00 | 71 | 1003.1 |
| 20260506042333 | 38 | 254 | 5.0 | 0.0 | 0.00 | 0.00 | 0.00 | 72 | 1003.1 |
| 20260506041842 | 38 | 275 | 5.0 | 0.0 | 0.00 | 0.00 | 0.00 | 73 | 1003.1 |
| 20260506041338 | 38 | 264 | 4.0 | 0.0 | 0.00 | 0.00 | 0.00 | 73 | 1003.0 |
| 20260506040831 | 38 | 258 | 3.0 | 0.0 | 0.00 | 0.00 | 0.00 | 73 | 1003.0 |
| 20260506040357 | 38 | 264 | 3.0 | 0.0 | 0.00 | 0.00 | 0.00 | 73 | 1003.0 |
| 20260506035847 | 38 | 274 | 3.0 | 0.0 | 0.00 | 0.00 | 0.00 | 73 | 1002.8 |
| 20260506035340 | 38 | 240 | 3.0 | 0.0 | 0.00 | 0.00 | 0.00 | 74 | 1002.8 |
| 20260506034832 | 37 | 250 | 3.0 | 0.0 | 0.00 | 0.00 | 0.00 | 74 | 1002.8 |
| 20260506034345 | 37 | 281 | 3.0 | 0.0 | 0.00 | 0.00 | 0.00 | 74 | 1002.8 |
| 20260506033837 | 37 | 241 | 1.0 | 0.0 | 0.00 | 0.00 | 0.00 | 74 | 1002.8 |
| 20260506033332 | 37 | 274 | 0.0 | 0.0 | 0.00 | 0.00 | 0.00 | 75 | 1002.8 |
| 20260506032850 | 37 | 235 | 2.0 | 0.0 | 0.00 | 0.00 | 0.00 | 75 | 1002.7 |
| 20260506032343 | 37 | 295 | 3.0 | 0.0 | 0.00 | 0.00 | 0.00 | 75 | 1002.7 |
| 20260506031835 | 37 | 267 | 2.0 | 0.0 | 0.00 | 0.00 | 0.00 | 76 | 1002.7 |
| 20260506031331 | 37 | 231 | 3.0 | 0.0 | 0.00 | 0.00 | 0.00 | 76 | 1002.6 |
| 20260506030844 | 36 | 262 | 2.0 | 0.0 | 0.00 | 0.00 | 0.00 | 76 | 1002.6 |
| 20260506030339 | 36 | 265 | 2.0 | 0.0 | 0.00 | 0.00 | 0.00 | 76 | 1002.6 |
| 20260506025830 | 36 | 250 | 2.0 | 0.0 | 0.00 | 0.00 | 0.00 | 76 | 1002.5 |
| 20260506025347 | 36 | 267 | 2.0 | 0.0 | 0.00 | 0.00 | 0.00 | 76 | 1002.5 |
| 20260506024839 | 36 | 282 | 3.0 | 0.0 | 0.00 | 0.00 | 0.00 | 76 | 1002.5 |
| 20260506024332 | 36 | 230 | 3.0 | 0.0 | 0.00 | 0.00 | 0.00 | 76 | 1002.4 |
| 20260506023852 | 36 | 264 | 2.0 | 0.0 | 0.00 | 0.00 | 0.00 | 75 | 1002.4 |
| 20260506023350 | 36 | 258 | 3.0 | 0.0 | 0.00 | 0.00 | 0.00 | 75 | 1002.4 |
| 20260506022841 | 36 | 228 | 4.0 | 0.0 | 0.00 | 0.00 | 0.00 | 75 | 1002.3 |
| 20260506022337 | 36 | 283 | 3.0 | 0.0 | 0.00 | 0.00 | 0.00 | 75 | 1002.3 |
| 20260506021829 | 36 | 245 | 2.0 | 0.0 | 0.00 | 0.00 | 0.00 | 75 | 1002.3 |
| 20260506021346 | 36 | 261 | 2.0 | 0.0 | 0.00 | 0.00 | 0.00 | 75 | 1002.2 |
| 20260506020837 | 36 | 262 | 2.0 | 0.0 | 0.00 | 0.00 | 0.00 | 75 | 1002.2 |
| 20260506020335 | 37 | 254 | 2.0 | 0.0 | 0.00 | 0.00 | 0.00 | 75 | 1002.2 |
| 20260506015845 | 37 | 241 | 3.0 | 0.0 | 0.00 | 0.00 | 0.00 | 74 | 1002.1 |
| 20260506015342 | 37 | 254 | 3.0 | 0.0 | 0.00 | 0.00 | 0.00 | 74 | 1002.1 |
| 20260506014830 | 37 | 264 | 3.0 | 0.0 | 0.00 | 0.00 | 0.00 | 73 | 1002.1 |
| 20260506014355 | 37 | 279 | 4.0 | 0.0 | 0.00 | 0.00 | 0.00 | 73 | 1001.9 |
| 20260506013847 | 37 | 261 | 3.0 | 0.0 | 0.00 | 0.00 | 0.00 | 73 | 1001.9 |
| 20260506013345 | 37 | 240 | 2.0 | 0.0 | 0.00 | 0.00 | 0.00 | 73 | 1001.9 |
| 20260506012840 | 37 | 245 | 2.0 | 0.0 | 0.00 | 0.00 | 0.00 | 73 | 1001.7 |
| 20260506012336 | 37 | 300 | 2.0 | 0.0 | 0.00 | 0.00 | 0.00 | 72 | 1001.7 |
| 20260506011829 | 37 | 293 | 2.0 | 0.0 | 0.00 | 0.00 | 0.00 | 72 | 1001.7 |
| 20260506011342 | 37 | 274 | 2.0 | 0.0 | 0.00 | 0.00 | 0.00 | 72 | 1001.7 |
| 20260506010834 | 37 | 289 | 3.0 | 0.0 | 0.00 | 0.00 | 0.00 | 71 | 1001.7 |
| 20260506010400 | 38 | 268 | 3.0 | 0.0 | 0.00 | 0.00 | 0.00 | 71 | 1001.7 |
| 20260506005835 | 38 | 274 | 3.0 | 0.0 | 0.00 | 0.00 | 0.00 | 71 | 1001.6 |
| 20260506005400 | 38 | 283 | 3.0 | 0.0 | 0.00 | 0.00 | 0.00 | 71 | 1001.6 |
| 20260506004833 | 37 | 243 | 3.0 | 0.0 | 0.00 | 0.00 | 0.00 | 71 | 1001.6 |
| 20260506004345 | 38 | 269 | 3.0 | 0.0 | 0.00 | 0.00 | 0.00 | 72 | 1001.5 |
| 20260506003838 | 38 | 257 | 3.0 | 0.0 | 0.00 | 0.00 | 0.00 | 71 | 1001.5 |
| 20260506003337 | 38 | 320 | 3.0 | 0.0 | 0.00 | 0.00 | 0.00 | 72 | 1001.5 |
| 20260506002846 | 38 | 261 | 3.0 | 0.0 | 0.00 | 0.00 | 0.00 | 71 | 1001.5 |
| 20260506002339 | 38 | 264 | 3.0 | 0.0 | 0.00 | 0.00 | 0.00 | 71 | 1001.5 |
| 20260506001831 | 38 | 296 | 3.0 | 0.0 | 0.00 | 0.00 | 0.00 | 70 | 1001.5 |
| 20260506001334 | 38 | 245 | 3.0 | 0.0 | 0.00 | 0.00 | 0.00 | 70 | 1001.2 |
| 20260506000854 | 38 | 282 | 2.0 | 0.0 | 0.00 | 0.00 | 0.00 | 70 | 1001.2 |
| 20260506000349 | 38 | 264 | 2.0 | 0.0 | 0.00 | 0.00 | 0.00 | 70 | 1001.2 |
| 20260505235839 | 38 | 281 | 3.0 | 0.0 | 0.00 | 0.00 | 0.00 | 69 | 1001.2 |
| 20260505235332 | 38 | 292 | 3.0 | 0.0 | 0.00 | 0.00 | 0.00 | 69 | 1001.2 |
| 20260505234847 | 38 | 252 | 3.0 | 0.0 | 0.00 | 0.00 | 0.00 | 69 | 1001.2 |
| 20260505234340 | 38 | 268 | 2.0 | 0.0 | 0.00 | 0.00 | 0.00 | 69 | 1001.2 |
| 20260505233833 | 38 | 252 | 2.0 | 0.0 | 0.00 | 0.00 | 0.00 | 69 | 1001.2 |
| 20260505233327 | 38 | 286 | 2.0 | 0.0 | 0.00 | 0.00 | 0.00 | 68 | 1001.2 |
| 20260505232843 | 38 | 262 | 2.0 | 0.0 | 0.00 | 0.00 | 0.00 | 67 | 1001.1 |
| 20260505232335 | 38 | 254 | 2.0 | 0.0 | 0.00 | 0.00 | 0.00 | 67 | 1001.1 |
| 20260505231831 | 38 | 251 | 1.0 | 0.0 | 0.00 | 0.00 | 0.00 | 67 | 1001.1 |
| 20260505231351 | 38 | 261 | 1.0 | 0.0 | 0.00 | 0.00 | 0.00 | 66 | 1001.1 |
| 20260505230844 | 38 | 243 | 2.0 | 0.0 | 0.00 | 0.00 | 0.00 | 66 | 1001.1 |
| 20260505230339 | 38 | 259 | 3.0 | 0.0 | 0.00 | 0.00 | 0.00 | 66 | 1001.1 |
| 20260505225833 | 38 | 258 | 3.0 | 0.0 | 0.00 | 0.00 | 0.00 | 66 | 1001.1 |
| 20260505225346 | 38 | 282 | 1.0 | 0.0 | 0.00 | 0.00 | 0.00 | 67 | 1001.1 |
| 20260505224840 | 37 | 303 | 1.0 | 0.0 | 0.00 | 0.00 | 0.00 | 69 | 1001.1 |
| 20260505224333 | 37 | 265 | 1.0 | 0.0 | 0.00 | 0.00 | 0.00 | 69 | 1001.1 |
| 20260505223829 | 37 | 238 | 1.0 | 0.0 | 0.00 | 0.00 | 0.00 | 70 | 1001.1 |
| 20260505223355 | 37 | 250 | 1.0 | 0.0 | 0.00 | 0.00 | 0.00 | 71 | 1001.1 |
| 20260505222845 | 36 | 238 | 1.0 | 0.0 | 0.00 | 0.00 | 0.00 | 72 | 1001.1 |
| 20260505222336 | 36 | 276 | 1.0 | 0.0 | 0.00 | 0.00 | 0.00 | 73 | 1001.1 |
| 20260505221847 | 36 | 259 | 0.0 | 0.0 | 0.00 | 0.00 | 0.00 | 75 | 1001.1 |
| 20260505221344 | 35 | 227 | 0.0 | 0.0 | 0.00 | 0.00 | 0.00 | 75 | 1001.1 |
| 20260505220840 | 35 | 227 | 0.0 | 0.0 | 0.00 | 0.00 | 0.00 | 76 | 1001.1 |
| 20260505220335 | 35 | 226 | 0.0 | 0.0 | 0.00 | 0.00 | 0.00 | 76 | 1001.1 |
| 20260505215829 | 35 | 206 | 0.0 | 0.0 | 0.00 | 0.00 | 0.00 | 77 | 1001.0 |
| 20260505215342 | 35 | 220 | 1.0 | 0.0 | 0.00 | 0.00 | 0.00 | 78 | 1001.0 |
| 20260505214839 | 35 | 214 | 0.0 | 0.0 | 0.00 | 0.00 | 0.00 | 78 | 1001.0 |
| 20260505214332 | 35 | 199 | 0.0 | 0.0 | 0.00 | 0.00 | 0.00 | 79 | 1000.9 |
| 20260505213855 | 35 | 199 | 0.0 | 0.0 | 0.00 | 0.00 | 0.00 | 80 | 1000.9 |
| 20260505213350 | 36 | 199 | 0.0 | 0.0 | 0.00 | 0.00 | 0.00 | 80 | 1000.9 |
| 20260505212840 | 36 | 199 | 1.0 | 0.0 | 0.00 | 0.00 | 0.00 | 80 | 1000.8 |
| 20260505212335 | 36 | 199 | 1.0 | 0.0 | 0.00 | 0.00 | 0.00 | 81 | 1000.8 |
| 20260505211847 | 36 | 197 | 1.0 | 0.0 | 0.00 | 0.00 | 0.00 | 82 | 1000.8 |
| 20260505211340 | 36 | 196 | 1.0 | 0.0 | 0.00 | 0.00 | 0.00 | 82 | 1000.7 |
| 20260505210832 | 36 | 192 | 1.0 | 0.0 | 0.00 | 0.00 | 0.00 | 82 | 1000.7 |
| 20260505210347 | 36 | 206 | 1.0 | 0.0 | 0.00 | 0.00 | 0.00 | 82 | 1000.7 |
| 20260505205837 | 36 | 199 | 1.0 | 0.0 | 0.00 | 0.00 | 0.02 | 82 | 1000.6 |
| 20260505205330 | 36 | 196 | 1.0 | 0.0 | 0.00 | 0.00 | 0.02 | 81 | 1000.6 |
| 20260505204853 | 37 | 196 | 1.0 | 0.0 | 0.00 | 0.00 | 0.02 | 80 | 1000.6 |
| 20260505204342 | 37 | 200 | 1.0 | 0.0 | 0.00 | 0.00 | 0.02 | 78 | 1000.5 |
| 20260505203834 | 38 | 204 | 1.0 | 0.0 | 0.00 | 0.00 | 0.02 | 77 | 1000.6 |
| 20260505203333 | 38 | 200 | 1.0 | 0.0 | 0.00 | 0.00 | 0.02 | 77 | 1000.6 |
| 20260505202843 | 38 | 219 | 1.0 | 0.0 | 0.00 | 0.00 | 0.02 | 77 | 1000.5 |
| 20260505202336 | 38 | 219 | 1.0 | 0.0 | 0.00 | 0.00 | 0.02 | 75 | 1000.5 |
| 20260505201848 | 38 | 213 | 1.0 | 0.0 | 0.00 | 0.00 | 0.02 | 74 | 1000.5 |
| 20260505201341 | 39 | 210 | 1.0 | 0.0 | 0.00 | 0.00 | 0.02 | 73 | 1000.4 |
| 20260505200834 | 39 | 216 | 0.0 | 0.0 | 0.00 | 0.00 | 0.02 | 71 | 1000.4 |
| 20260505200330 | 39 | 211 | 0.0 | 0.0 | 0.00 | 0.00 | 0.02 | 68 | 1000.4 |
| 20260505195856 | 40 | 207 | 1.0 | 0.0 | 0.00 | 0.00 | 0.02 | 66 | 1000.4 |
| 20260505195344 | 40 | 227 | 1.0 | 0.0 | 0.00 | 0.00 | 0.02 | 65 | 1000.4 |
| 20260505194836 | 41 | 230 | 1.0 | 0.0 | 0.00 | 0.00 | 0.02 | 63 | 1000.4 |
| 20260505194329 | 41 | 248 | 2.0 | 0.0 | 0.00 | 0.00 | 0.02 | 62 | 1000.4 |
| 20260505193841 | 41 | 251 | 2.0 | 0.0 | 0.00 | 0.00 | 0.02 | 61 | 1000.4 |
| 20260505193336 | 41 | 279 | 2.0 | 0.0 | 0.00 | 0.00 | 0.02 | 59 | 1000.4 |
| 20260505192847 | 42 | 250 | 2.0 | 0.0 | 0.00 | 0.00 | 0.02 | 57 | 1000.2 |
| 20260505192340 | 42 | 247 | 3.0 | 0.0 | 0.00 | 0.00 | 0.02 | 56 | 1000.2 |
| 20260505191832 | 42 | 247 | 3.0 | 0.0 | 0.00 | 0.00 | 0.02 | 55 | 1000.2 |
| 20260505191356 | 42 | 227 | 3.0 | 0.0 | 0.00 | 0.00 | 0.02 | 55 | 1000.2 |
| 20260505190831 | 43 | 268 | 3.0 | 0.0 | 0.00 | 0.00 | 0.02 | 54 | 1000.2 |
| 20260505190344 | 43 | 271 | 4.0 | 0.0 | 0.00 | 0.00 | 0.02 | 54 | 1000.2 |
| 20260505185830 | 43 | 255 | 5.0 | 0.0 | 0.00 | 0.00 | 0.02 | 53 | 1000.1 |
| 20260505185343 | 43 | 279 | 5.0 | 0.0 | 0.00 | 0.00 | 0.02 | 53 | 1000.1 |
| 20260505184834 | 43 | 230 | 5.0 | 0.0 | 0.00 | 0.00 | 0.02 | 53 | 1000.1 |
| 20260505184359 | 44 | 259 | 4.0 | 0.0 | 0.00 | 0.00 | 0.02 | 52 | 999.8 |
| 20260505183858 | 44 | 261 | 4.0 | 0.0 | 0.00 | 0.00 | 0.02 | 52 | 999.8 |
| 20260505183352 | 44 | 298 | 4.0 | 0.0 | 0.00 | 0.00 | 0.02 | 51 | 999.8 |
| 20260505182841 | 44 | 248 | 4.0 | 0.0 | 0.00 | 0.00 | 0.02 | 51 | 999.6 |
| 20260505182331 | 45 | 227 | 3.0 | 0.0 | 0.00 | 0.00 | 0.02 | 50 | 999.6 |
| 20260505181846 | 45 | 227 | 3.0 | 0.0 | 0.00 | 0.00 | 0.02 | 50 | 999.6 |
| 20260505181336 | 45 | 255 | 3.0 | 0.0 | 0.00 | 0.00 | 0.02 | 49 | 999.6 |
| 20260505180842 | 45 | 202 | 3.0 | 0.0 | 0.00 | 0.00 | 0.02 | 50 | 999.6 |
| 20260505175857 | 45 | 261 | 4.0 | 0.0 | 0.00 | 0.00 | 0.02 | 50 | 999.4 |
| 20260505175352 | 45 | 248 | 3.0 | 0.0 | 0.00 | 0.00 | 0.02 | 50 | 999.4 |
| 20260505174843 | 46 | 240 | 3.0 | 0.0 | 0.00 | 0.00 | 0.02 | 50 | 999.4 |
| 20260505174336 | 46 | 247 | 5.0 | 0.0 | 0.00 | 0.00 | 0.02 | 50 | 999.4 |
| 20260505173848 | 46 | 268 | 6.0 | 0.0 | 0.00 | 0.00 | 0.02 | 50 | 999.4 |
| 20260505173342 | 46 | 303 | 6.0 | 0.0 | 0.00 | 0.00 | 0.02 | 51 | 999.4 |
| 20260505172832 | 46 | 250 | 6.0 | 0.0 | 0.00 | 0.00 | 0.02 | 51 | 999.2 |
| 20260505172344 | 46 | 265 | 5.0 | 0.0 | 0.00 | 0.00 | 0.02 | 51 | 999.2 |
| 20260505171835 | 45 | 255 | 5.0 | 0.0 | 0.00 | 0.00 | 0.02 | 51 | 999.2 |
| 20260505171330 | 45 | 244 | 4.0 | 0.0 | 0.00 | 0.00 | 0.02 | 51 | 999.1 |
| 20260505170852 | 45 | 234 | 5.0 | 0.0 | 0.00 | 0.00 | 0.02 | 52 | 999.1 |
| 20260505170347 | 45 | 259 | 6.0 | 0.0 | 0.00 | 0.00 | 0.02 | 52 | 999.1 |
| 20260505165836 | 46 | 211 | 6.0 | 0.0 | 0.00 | 0.00 | 0.02 | 52 | 999.1 |
| 20260505165329 | 46 | 262 | 6.0 | 0.0 | 0.00 | 0.00 | 0.02 | 51 | 999.1 |
| 20260505164841 | 47 | 223 | 5.0 | 0.0 | 0.00 | 0.00 | 0.02 | 49 | 999.1 |
| 20260505164337 | 48 | 195 | 5.0 | 0.0 | 0.00 | 0.00 | 0.02 | 49 | 999.1 |
| 20260505163832 | 48 | 255 | 5.0 | 0.0 | 0.00 | 0.00 | 0.02 | 49 | 999.1 |
| 20260505163343 | 48 | 200 | 7.0 | 0.0 | 0.00 | 0.00 | 0.02 | 49 | 999.1 |
| 20260505162834 | 48 | 245 | 7.0 | 0.0 | 0.00 | 0.00 | 0.02 | 49 | 999.0 |
| 20260505162357 | 48 | 224 | 6.0 | 0.0 | 0.00 | 0.00 | 0.02 | 52 | 999.0 |
| 20260505161849 | 47 | 233 | 7.0 | 0.0 | 0.00 | 0.00 | 0.02 | 50 | 999.0 |
| 20260505161342 | 47 | 293 | 6.0 | 0.0 | 0.00 | 0.00 | 0.02 | 54 | 999.0 |
| 20260505160833 | 47 | 241 | 6.0 | 0.0 | 0.00 | 0.00 | 0.02 | 53 | 999.0 |
| 20260505160349 | 47 | 206 | 7.0 | 0.0 | 0.00 | 0.00 | 0.02 | 53 | 999.0 |
| 20260505153355 | 47 | 228 | 7.0 | 0.0 | 0.00 | 0.00 | 0.02 | 54 | 998.9 |
| 20260505152844 | 47 | 220 | 8.0 | 0.0 | 0.00 | 0.00 | 0.02 | 54 | 998.8 |
| 20260505152340 | 47 | 262 | 9.0 | 0.0 | 0.00 | 0.00 | 0.02 | 54 | 998.8 |
| 20260505151831 | 48 | 243 | 9.0 | 0.0 | 0.00 | 0.00 | 0.02 | 52 | 998.8 |
| 20260505151328 | 48 | 228 | 8.0 | 0.0 | 0.00 | 0.00 | 0.02 | 50 | 998.6 |
| 20260505150844 | 48 | 257 | 8.0 | 0.0 | 0.00 | 0.00 | 0.02 | 48 | 998.6 |
| 20260505150338 | 48 | 285 | 9.0 | 0.0 | 0.00 | 0.00 | 0.02 | 46 | 998.6 |
| 20260505140346 | 48 | 192 | 10.0 | 0.0 | 0.00 | 0.00 | 0.02 | 40 | 998.5 |
| 20260505124828 | 48 | 262 | 10.0 | 0.0 | 0.00 | 0.00 | 0.02 | 43 | 998.0 |
| 20260505124342 | 47 | 223 | 10.0 | 0.0 | 0.00 | 0.00 | 0.02 | 45 | 997.8 |
| 20260505123834 | 48 | 227 | 10.0 | 0.0 | 0.00 | 0.00 | 0.02 | 45 | 997.8 |
| 20260505123349 | 48 | 248 | 9.0 | 0.0 | 0.00 | 0.00 | 0.02 | 43 | 997.8 |
| 20260505122840 | 48 | 228 | 8.0 | 0.0 | 0.00 | 0.00 | 0.02 | 41 | 997.8 |
| 20260505122329 | 48 | 251 | 9.0 | 0.0 | 0.00 | 0.00 | 0.02 | 42 | 997.8 |
| 20260505121852 | 48 | 295 | 9.0 | 0.0 | 0.00 | 0.00 | 0.02 | 40 | 997.8 |
| 20260505121345 | 48 | 302 | 9.0 | 0.0 | 0.00 | 0.00 | 0.02 | 39 | 997.5 |
| 20260505120841 | 48 | 269 | 9.0 | 0.0 | 0.00 | 0.00 | 0.02 | 41 | 997.5 |
| 20260505120336 | 48 | 267 | 9.0 | 0.0 | 0.00 | 0.00 | 0.02 | 41 | 997.5 |
| 20260505115848 | 47 | 296 | 9.0 | 0.0 | 0.00 | 0.00 | 0.02 | 43 | 997.4 |
| 20260505115341 | 47 | 257 | 9.0 | 0.0 | 0.00 | 0.00 | 0.02 | 44 | 997.4 |
| 20260505114834 | 47 | 292 | 9.0 | 0.0 | 0.00 | 0.00 | 0.02 | 45 | 997.4 |
| 20260505114347 | 46 | 302 | 9.0 | 0.0 | 0.00 | 0.00 | 0.02 | 45 | 997.5 |
| 20260505113839 | 46 | 267 | 10.0 | 0.0 | 0.00 | 0.00 | 0.02 | 48 | 997.5 |
| 20260505113401 | 46 | 278 | 9.0 | 0.0 | 0.00 | 0.00 | 0.02 | 49 | 997.5 |
| 20260505112851 | 45 | 233 | 8.0 | 0.0 | 0.00 | 0.00 | 0.02 | 52 | 997.3 |
| 20260505112344 | 45 | 300 | 8.0 | 0.0 | 0.00 | 0.00 | 0.02 | 53 | 997.3 |
| 20260505111837 | 45 | 203 | 8.0 | 0.0 | 0.00 | 0.00 | 0.02 | 52 | 997.3 |
| 20260505111333 | 45 | 230 | 9.0 | 0.0 | 0.00 | 0.00 | 0.02 | 52 | 997.1 |
| 20260505110845 | 45 | 245 | 8.0 | 0.0 | 0.00 | 0.00 | 0.02 | 52 | 997.1 |
| 20260505110339 | 45 | 292 | 8.0 | 0.0 | 0.00 | 0.00 | 0.02 | 54 | 997.1 |
| 20260505101833 | 44 | 257 | 8.0 | 0.0 | 0.00 | 0.00 | 0.02 | 56 | 996.6 |
| 20260505101346 | 44 | 235 | 9.0 | 0.0 | 0.00 | 0.00 | 0.02 | 52 | 996.5 |
| 20260505100838 | 44 | 298 | 9.0 | 0.0 | 0.00 | 0.00 | 0.02 | 54 | 996.5 |
| 20260505100333 | 44 | 268 | 10.0 | 0.0 | 0.00 | 0.00 | 0.02 | 53 | 996.5 |
| 20260505095853 | 43 | 265 | 9.0 | 0.0 | 0.00 | 0.00 | 0.02 | 54 | 996.5 |
| 20260505095342 | 43 | 240 | 9.0 | 0.0 | 0.00 | 0.00 | 0.02 | 54 | 996.5 |
| 20260505094833 | 43 | 292 | 9.0 | 0.0 | 0.00 | 0.00 | 0.02 | 55 | 996.5 |
| 20260505094329 | 43 | 244 | 10.0 | 0.0 | 0.00 | 0.00 | 0.02 | 57 | 996.4 |
| 20260505093842 | 43 | 305 | 10.0 | 0.0 | 0.00 | 0.00 | 0.02 | 55 | 996.4 |
| 20260505093337 | 43 | 347 | 7.0 | 0.0 | 0.00 | 0.00 | 0.02 | 56 | 996.4 |
| 20260505092847 | 43 | 240 | 6.0 | 0.0 | 0.00 | 0.00 | 0.02 | 58 | 996.3 |
| 20260505092340 | 42 | 227 | 8.0 | 0.0 | 0.00 | 0.00 | 0.02 | 61 | 996.3 |
| 20260505091831 | 42 | 245 | 9.0 | 0.0 | 0.00 | 0.00 | 0.02 | 61 | 996.3 |
| 20260505091356 | 42 | 217 | 8.0 | 0.0 | 0.00 | 0.00 | 0.02 | 64 | 996.1 |
| 20260505090848 | 42 | 274 | 6.0 | 0.0 | 0.00 | 0.00 | 0.02 | 63 | 996.1 |
| 20260505090343 | 42 | 293 | 6.0 | 0.0 | 0.00 | 0.00 | 0.02 | 64 | 996.1 |
| 20260505085838 | 42 | 282 | 7.0 | 0.0 | 0.00 | 0.00 | 0.02 | 64 | 995.9 |
| 20260505085331 | 42 | 244 | 7.0 | 0.0 | 0.00 | 0.00 | 0.02 | 65 | 995.9 |
| 20260505084843 | 42 | 268 | 7.0 | 0.0 | 0.00 | 0.00 | 0.02 | 65 | 995.9 |
| 20260505084336 | 42 | 231 | 6.0 | 0.0 | 0.00 | 0.00 | 0.02 | 64 | 995.7 |
| 20260505083848 | 42 | 237 | 6.0 | 0.0 | 0.00 | 0.00 | 0.02 | 65 | 995.7 |
| 20260505083342 | 42 | 360 | 7.0 | 0.0 | 0.00 | 0.00 | 0.02 | 66 | 995.7 |
| 20260505082833 | 42 | 289 | 7.0 | 0.0 | 0.00 | 0.00 | 0.02 | 66 | 995.5 |
| 20260505082357 | 42 | 241 | 6.0 | 0.0 | 0.00 | 0.00 | 0.02 | 66 | 995.5 |
| 20260505081849 | 42 | 234 | 6.0 | 0.0 | 0.00 | 0.00 | 0.02 | 68 | 995.5 |
| 20260505081347 | 41 | 310 | 6.0 | 0.0 | 0.00 | 0.00 | 0.02 | 68 | 995.3 |
| 20260505080841 | 41 | 264 | 5.0 | 0.0 | 0.00 | 0.00 | 0.02 | 69 | 995.3 |
| 20260505080340 | 41 | 291 | 6.0 | 0.0 | 0.00 | 0.00 | 0.02 | 69 | 995.3 |
| 20260505075834 | 41 | 271 | 5.0 | 0.0 | 0.00 | 0.00 | 0.02 | 68 | 995.3 |
| 20260505075347 | 41 | 293 | 5.0 | 0.0 | 0.00 | 0.00 | 0.02 | 68 | 995.3 |
| 20260505074840 | 41 | 317 | 6.0 | 0.0 | 0.00 | 0.00 | 0.02 | 70 | 995.3 |
| 20260505074333 | 41 | 276 | 7.0 | 0.0 | 0.00 | 0.00 | 0.02 | 69 | 995.2 |
| 20260505073828 | 41 | 240 | 7.0 | 0.0 | 0.00 | 0.00 | 0.02 | 71 | 995.2 |
| 20260505073359 | 41 | 228 | 7.0 | 0.0 | 0.00 | 0.00 | 0.02 | 68 | 995.2 |
| 20260505072849 | 41 | 281 | 6.0 | 0.0 | 0.00 | 0.00 | 0.02 | 70 | 995.1 |
| 20260505072345 | 41 | 293 | 7.0 | 0.0 | 0.00 | 0.00 | 0.02 | 69 | 995.1 |
| 20260505071837 | 40 | 267 | 7.0 | 0.0 | 0.00 | 0.00 | 0.02 | 70 | 995.1 |
| 20260505071333 | 40 | 307 | 6.0 | 0.0 | 0.00 | 0.00 | 0.02 | 71 | 994.9 |
| 20260505070828 | 40 | 283 | 6.0 | 0.0 | 0.00 | 0.00 | 0.02 | 70 | 994.9 |
| 20260505070344 | 40 | 296 | 6.0 | 0.0 | 0.00 | 0.00 | 0.02 | 71 | 994.9 |
| 20260505065834 | 40 | 291 | 6.0 | 0.0 | 0.00 | 0.00 | 0.02 | 71 | 994.8 |
| 20260505065333 | 40 | 200 | 6.0 | 0.0 | 0.00 | 0.00 | 0.02 | 73 | 994.8 |
| 20260505064848 | 40 | 234 | 6.0 | 0.0 | 0.00 | 0.00 | 0.02 | 74 | 994.8 |
| 20260505064341 | 40 | 258 | 6.0 | 0.0 | 0.00 | 0.00 | 0.02 | 73 | 994.7 |
| 20260505063832 | 40 | 250 | 6.0 | 0.0 | 0.00 | 0.00 | 0.02 | 75 | 994.7 |
| 20260505063330 | 40 | 228 | 6.0 | 0.0 | 0.00 | 0.00 | 0.02 | 75 | 994.7 |
| 20260505062848 | 40 | 303 | 6.0 | 0.0 | 0.00 | 0.00 | 0.02 | 74 | 994.6 |
| 20260505062341 | 40 | 296 | 5.0 | 0.0 | 0.00 | 0.00 | 0.02 | 75 | 994.6 |
| 20260505061834 | 40 | 279 | 5.0 | 0.0 | 0.00 | 0.00 | 0.02 | 76 | 994.6 |
| 20260505061333 | 39 | 316 | 6.0 | 0.0 | 0.00 | 0.00 | 0.02 | 77 | 994.5 |
| 20260505060845 | 39 | 275 | 6.0 | 0.0 | 0.00 | 0.00 | 0.02 | 76 | 994.5 |
| 20260505060342 | 39 | 274 | 5.0 | 0.0 | 0.00 | 0.00 | 0.02 | 78 | 994.5 |
| 20260505055832 | 39 | 206 | 4.0 | 0.0 | 0.00 | 0.00 | 0.02 | 79 | 994.4 |